This is the latest recevied weather packets stored in our database for station/object K5IDL. If no packets are shown the sender has not sent any weather packets the latest 10 day(s).
| Time | Temp. | Humidity | Pressure | Rain* | Wind** | Luminosity | Snow |
|---|---|---|---|---|---|---|---|
| 1778021516 | 30.56° C | 48% | 1005.2 hPa | 0 mm | - | 50 W/m² | - |
| 1778021211 | 31.11° C | 47% | 1005.2 hPa | 0 mm | - | 57 W/m² | - |
| 1778020910 | 31.11° C | 47% | 1004.9 hPa | 0 mm | - | 64 W/m² | - |
| 1778020607 | 31.67° C | 47% | 1005.1 hPa | 0 mm | - | 63 W/m² | - |
| 1778020303 | 32.22° C | 53% | 1004.6 hPa | 0 mm | - | 54 W/m² | - |
| 1778019999 | 32.22° C | 53% | 1004.4 hPa | 0 mm | - | 60 W/m² | - |
| 1778019695 | 32.22° C | 53% | 1004.5 hPa | 0 mm | - | 58 W/m² | - |
| 1778019392 | 32.22° C | 53% | 1004.4 hPa | 0 mm | - | 59 W/m² | - |
| 1778019089 | 32.22° C | 53% | 1004.3 hPa | 0 mm | - | 118 W/m² | - |
| 1778018787 | 32.22° C | 53% | 1004.5 hPa | 0 mm | - | 141 W/m² | - |
| 1778018484 | 32.78° C | 53% | 1004.5 hPa | 0 mm | - | 58 W/m² | - |
| 1778018181 | 32.78° C | 53% | 1004.8 hPa | 0 mm | - | 85 W/m² | - |
| 1778017879 | 32.22° C | 52% | 1004.6 hPa | 0 mm | - | 87 W/m² | - |
| 1778017577 | 32.22° C | 53% | 1004.8 hPa | 0 mm | - | 62 W/m² | - |
| 1778017274 | 32.22° C | 52% | 1004.6 hPa | 0 mm | - | 60 W/m² | - |
| 1778016972 | 32.78° C | 53% | 1004.7 hPa | 0 mm | - | 79 W/m² | - |
| 1778016668 | 32.22° C | 54% | 1004.7 hPa | 0 mm | - | 102 W/m² | - |
| 1778016364 | 31.67° C | 55% | 1005 hPa | 0 mm | - | 123 W/m² | - |
| 1778016063 | 31.67° C | 55% | 1004.7 hPa | 0 mm | - | 72 W/m² | - |
| 1778015758 | 32.22° C | 54% | 1004.9 hPa | 0 mm | - | 168 W/m² | - |
| 1778015456 | 31.67° C | 54% | 1005 hPa | 0 mm | - | 90 W/m² | - |
| 1778015152 | 32.22° C | 54% | 1005.2 hPa | 0 mm | - | 63 W/m² | - |
| 1778014850 | 32.22° C | 54% | 1005 hPa | 0 mm | - | 67 W/m² | - |
| 1778014547 | 31.67° C | 58% | 1005 hPa | 0 mm | - | 89 W/m² | - |
| 1778014244 | 31.67° C | 58% | 1005.3 hPa | 0 mm | - | 101 W/m² | - |
* Rain latest hour (hover to see other rain measurements)
** Current wind speed in m/s (hover to see current wind gust speed)